Time,TemperatureF,DewpointF,PressureIn,WindDirection,WindDirectionDegrees,WindSpeedMPH,WindSpeedGustMPH,Humidity,HourlyPrecipIn,Conditions,Clouds,dailyrainin,SoftwareType,DateUTC
2013-03-18 00:00:00,30.1,22.2,30.27,ENE,71,3.0,4.0,72,0.00,,CLR,0.00,VWS V14.01,2013-03-18 04:00:00,
2013-03-18 00:05:00,30.1,21.9,30.27,ENE,75,3.0,3.0,71,0.00,,CLR,0.00,VWS V14.01,2013-03-18 04:05:00,
2013-03-18 00:10:00,30.2,21.6,30.27,East,96,1.0,3.0,70,0.00,,CLR,0.00,VWS V14.01,2013-03-18 04:10:00,
2013-03-18 00:15:00,30.0,21.8,30.27,East,96,0.0,2.0,71,0.00,,CLR,0.00,VWS V14.01,2013-03-18 04:15:00,
2013-03-18 00:20:00,29.9,21.3,30.27,ESE,111,2.0,3.0,70,0.00,,CLR,0.00,VWS V14.01,2013-03-18 04:20:00,
2013-03-18 00:25:00,30.0,21.1,30.27,East,94,0.0,3.0,69,0.00,,CLR,0.00,VWS V14.01,2013-03-18 04:25:00,
2013-03-18 00:31:00,29.8,21.2,30.27,East,92,1.0,3.0,70,0.00,,CLR,0.00,VWS V14.01,2013-03-18 04:31:00,
2013-03-18 00:36:00,30.0,20.7,30.28,ENE,75,5.0,5.0,68,0.00,,CLR,0.00,VWS V14.01,2013-03-18 04:36:00,
2013-03-18 00:41:00,30.1,20.5,30.28,ENE,69,4.0,5.0,67,0.00,,CLR,0.00,VWS V14.01,2013-03-18 04:41:00,
2013-03-18 00:46:00,30.2,20.6,30.27,East,86,3.0,4.0,67,0.00,,CLR,0.00,VWS V14.01,2013-03-18 04:46:00,
2013-03-18 00:51:00,30.0,20.7,30.28,East,82,1.0,4.0,68,0.00,,CLR,0.00,VWS V14.01,2013-03-18 04:51:00,
2013-03-18 00:56:00,29.9,20.6,30.28,East,86,4.0,4.0,68,0.00,,CLR,0.00,VWS V14.01,2013-03-18 04:56:00,
2013-03-18 01:01:00,30.0,20.4,30.28,ESE,103,6.0,8.0,67,0.00,,CLR,0.00,VWS V14.01,2013-03-18 05:01:00,
2013-03-18 01:06:00,30.0,20.4,30.28,NNE,14,2.0,5.0,67,0.00,,CLR,0.00,VWS V14.01,2013-03-18 05:06:00,
2013-03-18 01:11:00,30.0,20.0,30.28,ENE,78,4.0,7.0,66,0.00,,CLR,0.00,VWS V14.01,2013-03-18 05:11:00,
2013-03-18 01:16:00,30.0,20.0,30.28,East,82,2.0,6.0,66,0.00,,CLR,0.00,VWS V14.01,2013-03-18 05:16:00,
2013-03-18 01:21:00,29.9,19.9,30.28,ENE,71,3.0,5.0,66,0.00,,CLR,0.00,VWS V14.01,2013-03-18 05:21:00,
2013-03-18 01:27:00,29.7,19.8,30.28,NNW,331,1.0,6.0,66,0.00,,CLR,0.00,VWS V14.01,2013-03-18 05:27:00,
2013-03-18 01:32:00,29.7,19.8,30.28,ENE,73,6.0,6.0,66,0.00,,CLR,0.00,VWS V14.01,2013-03-18 05:32:00,
2013-03-18 01:37:00,29.5,19.9,30.29,ESE,107,1.0,6.0,67,0.00,,CLR,0.00,VWS V14.01,2013-03-18 05:37:00,
2013-03-18 01:42:00,29.4,19.8,30.29,ESE,103,2.0,5.0,67,0.00,,CLR,0.00,VWS V14.01,2013-03-18 05:42:00,
2013-03-18 01:47:00,29.3,19.4,30.29,East,89,2.0,4.0,66,0.00,,CLR,0.00,VWS V14.01,2013-03-18 05:47:00,
2013-03-18 01:52:00,29.2,19.6,30.29,ESE,103,3.0,4.0,67,0.00,,CLR,0.00,VWS V14.01,2013-03-18 05:52:00,
2013-03-18 01:57:00,29.2,19.3,30.29,ESE,110,3.0,4.0,66,0.00,,CLR,0.00,VWS V14.01,2013-03-18 05:57:00,
2013-03-18 02:02:00,29.2,19.3,30.30,ESE,115,2.0,3.0,66,0.00,,CLR,0.00,VWS V14.01,2013-03-18 06:02:00,
2013-03-18 02:07:00,29.2,19.3,30.30,East,96,2.0,4.0,66,0.00,,CLR,0.00,VWS V14.01,2013-03-18 06:07:00,
2013-03-18 02:12:00,29.2,19.3,30.29,East,96,1.0,4.0,66,0.00,,CLR,0.00,VWS V14.01,2013-03-18 06:12:00,
2013-03-18 02:18:00,29.0,19.4,30.30,East,91,2.0,4.0,67,0.00,,CLR,0.00,VWS V14.01,2013-03-18 06:18:00,
2013-03-18 02:23:00,28.9,19.3,30.30,East,85,1.0,3.0,67,0.00,,CLR,0.00,VWS V14.01,2013-03-18 06:23:00,
2013-03-18 02:28:00,28.9,19.0,30.30,ENE,70,1.0,2.0,66,0.00,,CLR,0.00,VWS V14.01,2013-03-18 06:28:00,
2013-03-18 02:33:00,28.8,19.2,30.30,ENE,77,0.0,4.0,67,0.00,,CLR,0.00,VWS V14.01,2013-03-18 06:33:00,
2013-03-18 02:38:00,28.6,19.0,30.31,ENE,76,3.0,4.0,67,0.00,,CLR,0.00,VWS V14.01,2013-03-18 06:38:00,
2013-03-18 02:43:00,28.8,18.9,30.31,ENE,72,2.0,4.0,66,0.00,,CLR,0.00,VWS V14.01,2013-03-18 06:43:00,
2013-03-18 02:48:00,28.6,18.7,30.31,ESE,105,1.0,5.0,66,0.00,,CLR,0.00,VWS V14.01,2013-03-18 06:48:00,
2013-03-18 02:53:00,28.8,18.5,30.31,ESE,112,3.0,5.0,65,0.00,,CLR,0.00,VWS V14.01,2013-03-18 06:53:00,
2013-03-18 02:58:00,28.8,18.2,30.31,East,101,1.0,5.0,64,0.00,,CLR,0.00,VWS V14.01,2013-03-18 06:58:00,
2013-03-18 03:03:00,28.8,18.2,30.31,East,83,3.0,4.0,64,0.00,,CLR,0.00,VWS V14.01,2013-03-18 07:03:00,
2013-03-18 03:08:00,28.9,18.6,30.31,East,97,7.0,7.0,65,0.00,,CLR,0.00,VWS V14.01,2013-03-18 07:08:00,
2013-03-18 03:13:00,29.2,18.5,30.31,ESE,115,6.0,7.0,64,0.00,,CLR,0.00,VWS V14.01,2013-03-18 07:13:00,
2013-03-18 03:18:00,29.3,17.9,30.31,East,92,2.0,5.0,62,0.00,,CLR,0.00,VWS V14.01,2013-03-18 07:18:00,
2013-03-18 03:23:00,29.3,17.9,30.31,East,100,4.0,7.0,62,0.00,,CLR,0.00,VWS V14.01,2013-03-18 07:23:00,
2013-03-18 03:29:00,29.3,18.3,30.30,ESE,104,7.0,8.0,63,0.00,,CLR,0.00,VWS V14.01,2013-03-18 07:29:00,
2013-03-18 03:34:00,29.2,18.5,30.30,ESE,105,7.0,8.0,64,0.00,,CLR,0.00,VWS V14.01,2013-03-18 07:34:00,
2013-03-18 03:39:00,29.2,18.5,30.31,NNE,15,6.0,9.0,64,0.00,,CLR,0.00,VWS V14.01,2013-03-18 07:39:00,
2013-03-18 03:44:00,29.2,18.2,30.31,East,100,5.0,10.0,63,0.00,,CLR,0.00,VWS V14.01,2013-03-18 07:44:00,
2013-03-18 03:49:00,28.9,18.6,30.31,NNE,12,1.0,9.0,65,0.00,,CLR,0.00,VWS V14.01,2013-03-18 07:49:00,
2013-03-18 03:54:00,28.7,18.8,30.31,ENE,57,3.0,7.0,66,0.00,,CLR,0.00,VWS V14.01,2013-03-18 07:54:00,
2013-03-18 03:59:00,28.7,18.8,30.31,ESE,108,6.0,9.0,66,0.00,,CLR,0.00,VWS V14.01,2013-03-18 07:59:00,
2013-03-18 04:04:00,28.6,18.7,30.31,East,79,4.0,10.0,66,0.00,,CLR,0.00,VWS V14.01,2013-03-18 08:04:00,
2013-03-18 04:09:00,28.4,18.9,30.31,East,85,5.0,6.0,67,0.00,,CLR,0.00,VWS V14.01,2013-03-18 08:09:00,
2013-03-18 04:14:00,28.3,19.1,30.31,ENE,76,5.0,9.0,68,0.00,,CLR,0.00,VWS V14.01,2013-03-18 08:14:00,
2013-03-18 04:19:00,28.3,18.8,30.31,ENE,69,4.0,8.0,67,0.00,,CLR,0.00,VWS V14.01,2013-03-18 08:19:00,
2013-03-18 04:24:00,28.2,18.7,30.31,East,86,10.0,10.0,67,0.00,,CLR,0.00,VWS V14.01,2013-03-18 08:24:00,
2013-03-18 04:29:00,28.2,18.7,30.31,ENE,67,7.0,10.0,67,0.00,,CLR,0.00,VWS V14.01,2013-03-18 08:29:00,
2013-03-18 04:35:00,28.2,18.3,30.31,East,96,5.0,9.0,66,0.00,,CLR,0.00,VWS V14.01,2013-03-18 08:35:00,
2013-03-18 04:40:00,28.1,18.6,30.31,NE,56,8.0,10.0,67,0.00,,CLR,0.00,VWS V14.01,2013-03-18 08:40:00,
2013-03-18 04:45:00,28.2,18.3,30.31,ENE,62,9.0,13.0,66,0.00,,CLR,0.00,VWS V14.01,2013-03-18 08:45:00,
2013-03-18 04:50:00,28.2,18.3,30.31,WSW,241,3.0,11.0,66,0.00,,CLR,0.00,VWS V14.01,2013-03-18 08:50:00,
2013-03-18 04:55:00,28.1,18.2,30.31,East,81,7.0,11.0,66,0.00,,CLR,0.00,VWS V14.01,2013-03-18 08:55:00,
2013-03-18 05:00:00,28.1,18.6,30.31,ESE,120,3.0,10.0,67,0.00,,CLR,0.00,VWS V14.01,2013-03-18 09:00:00,
2013-03-18 05:05:00,28.1,18.2,30.31,East,81,9.0,11.0,66,0.00,,CLR,0.00,VWS V14.01,2013-03-18 09:05:00,
2013-03-18 05:10:00,28.1,17.9,30.31,North,354,5.0,13.0,65,0.00,,CLR,0.00,VWS V14.01,2013-03-18 09:10:00,
2013-03-18 05:15:00,28.1,18.2,30.31,ENE,70,9.0,12.0,66,0.00,,CLR,0.00,VWS V14.01,2013-03-18 09:15:00,
2013-03-18 05:20:00,28.1,17.9,30.31,ENE,68,9.0,12.0,65,0.00,,CLR,0.00,VWS V14.01,2013-03-18 09:20:00,
2013-03-18 05:25:00,28.0,17.8,30.31,East,85,9.0,12.0,65,0.00,,CLR,0.00,VWS V14.01,2013-03-18 09:25:00,
2013-03-18 05:30:00,28.0,18.1,30.31,ENE,72,7.0,12.0,66,0.00,,CLR,0.00,VWS V14.01,2013-03-18 09:30:00,
2013-03-18 05:35:00,27.9,18.4,30.31,ENE,72,4.0,11.0,67,0.00,,CLR,0.00,VWS V14.01,2013-03-18 09:35:00,
2013-03-18 05:40:00,27.8,18.3,30.31,East,88,7.0,10.0,67,0.00,,CLR,0.00,VWS V14.01,2013-03-18 09:40:00,
2013-03-18 05:45:00,27.7,18.5,30.31,ENE,75,7.0,10.0,68,0.00,,CLR,0.00,VWS V14.01,2013-03-18 09:45:00,
2013-03-18 05:50:00,27.6,18.8,30.31,SSE,152,4.0,9.0,69,0.00,,CLR,0.00,VWS V14.01,2013-03-18 09:50:00,
2013-03-18 05:55:00,27.5,18.7,30.32,WNW,301,2.0,8.0,69,0.00,,CLR,0.00,VWS V14.01,2013-03-18 09:55:00,
2013-03-18 06:00:00,27.5,18.3,30.32,NE,49,3.0,9.0,68,0.00,,CLR,0.00,VWS V14.01,2013-03-18 10:00:00,
2013-03-18 06:05:00,27.6,17.7,30.32,ENE,72,4.0,9.0,66,0.00,,BKN120,0.00,VWS V14.01,2013-03-18 10:05:00,
2013-03-18 06:10:00,27.7,18.2,30.32,NNW,335,3.0,9.0,67,0.00,,BKN120,0.00,VWS V14.01,2013-03-18 10:10:00,
2013-03-18 06:15:00,27.8,17.9,30.33,East,96,4.0,8.0,66,0.00,,BKN120,0.00,VWS V14.01,2013-03-18 10:15:00,
2013-03-18 06:20:00,27.8,17.9,30.33,ESE,105,1.0,7.0,66,0.00,,BKN120,0.00,VWS V14.01,2013-03-18 10:20:00,
2013-03-18 06:25:00,27.3,17.5,30.33,ENE,78,3.0,4.0,66,0.00,,BKN120,0.00,VWS V14.01,2013-03-18 10:25:00,
2013-03-18 06:30:00,27.3,17.5,30.33,ENE,78,3.0,3.0,66,0.00,,BKN120,0.00,VWS V14.01,2013-03-18 10:30:00,
2013-03-18 06:35:00,27.3,17.5,30.33,ENE,78,3.0,3.0,66,0.00,,BKN120,0.00,VWS V14.01,2013-03-18 10:35:00,
2013-03-18 06:40:00,27.3,17.5,30.33,ENE,78,3.0,3.0,66,0.00,,BKN120,0.00,VWS V14.01,2013-03-18 10:40:00,
2013-03-18 06:45:00,27.3,17.5,30.33,ENE,78,3.0,3.0,66,0.00,,BKN120,0.00,VWS V14.01,2013-03-18 10:45:00,
2013-03-18 06:50:00,27.3,17.5,30.33,ENE,78,3.0,3.0,66,0.00,,BKN120,0.00,VWS V14.01,2013-03-18 10:50:00,
2013-03-18 06:55:00,27.3,17.5,30.33,ENE,78,3.0,3.0,66,0.00,,BKN120,0.00,VWS V14.01,2013-03-18 10:55:00,
2013-03-18 07:00:00,27.3,17.5,30.33,ENE,78,3.0,3.0,66,0.00,,BKN120,0.00,VWS V14.01,2013-03-18 11:00:00,
2013-03-18 07:05:00,27.3,17.5,30.33,ENE,78,3.0,3.0,66,0.00,,OVC110,0.00,VWS V14.01,2013-03-18 11:05:00,
2013-03-18 07:10:00,27.3,17.5,30.33,ENE,78,3.0,3.0,66,0.00,,OVC110,0.00,VWS V14.01,2013-03-18 11:10:00,
2013-03-18 07:15:00,27.3,17.5,30.33,ENE,78,3.0,3.0,66,0.00,,OVC110,0.00,VWS V14.01,2013-03-18 11:15:00,
2013-03-18 07:20:00,27.3,17.5,30.32,ENE,78,3.0,3.0,66,0.00,,OVC110,0.00,VWS V14.01,2013-03-18 11:20:00,
2013-03-18 07:25:00,27.3,17.5,30.33,ENE,78,3.0,3.0,66,0.00,,OVC110,0.00,VWS V14.01,2013-03-18 11:25:00,
2013-03-18 07:30:00,27.3,17.5,30.32,ENE,78,3.0,3.0,66,0.00,,OVC110,0.00,VWS V14.01,2013-03-18 11:30:00,
2013-03-18 07:35:00,27.3,17.5,30.32,ENE,78,3.0,3.0,66,0.00,,OVC110,0.00,VWS V14.01,2013-03-18 11:35:00,
2013-03-18 07:40:00,27.3,17.5,30.32,ENE,78,3.0,3.0,66,0.00,,OVC110,0.00,VWS V14.01,2013-03-18 11:40:00,
2013-03-18 07:45:00,27.3,17.5,30.32,ENE,78,3.0,3.0,66,0.00,,OVC110,0.00,VWS V14.01,2013-03-18 11:45:00,
2013-03-18 07:50:00,27.3,17.5,30.32,ENE,78,3.0,3.0,66,0.00,,OVC110,0.00,VWS V14.01,2013-03-18 11:50:00,
2013-03-18 07:55:00,27.3,17.5,30.31,ENE,78,3.0,3.0,66,0.00,,OVC110,0.00,VWS V14.01,2013-03-18 11:55:00,
2013-03-18 08:00:00,27.3,17.5,30.31,ENE,78,3.0,3.0,66,0.00,,OVC110,0.00,VWS V14.01,2013-03-18 12:00:00,
2013-03-18 08:05:00,27.9,17.0,30.31,ESE,105,12.0,14.0,63,0.00,,OVC100,0.00,VWS V14.01,2013-03-18 12:05:00,
2013-03-18 08:10:00,27.9,17.0,30.31,ESE,105,7.0,8.0,63,0.00,,OVC100,0.00,VWS V14.01,2013-03-18 12:10:00,
2013-03-18 08:15:00,28.0,16.3,30.31,SSE,166,5.0,7.0,61,0.00,,OVC100,0.00,VWS V14.01,2013-03-18 12:15:00,
2013-03-18 08:20:00,28.1,17.1,30.32,East,88,7.0,7.0,63,0.00,,OVC100,0.00,VWS V14.01,2013-03-18 12:20:00,
2013-03-18 08:25:00,28.1,16.8,30.32,East,94,8.0,11.0,62,0.00,,OVC100,0.00,VWS V14.01,2013-03-18 12:25:00,
2013-03-18 08:30:00,28.1,16.4,30.32,ESE,107,8.0,12.0,61,0.00,,OVC100,0.00,VWS V14.01,2013-03-18 12:30:00,
2013-03-18 08:35:00,28.2,16.5,30.32,ESE,115,5.0,9.0,61,0.00,,OVC100,0.00,VWS V14.01,2013-03-18 12:35:00,
2013-03-18 08:40:00,28.2,17.2,30.32,ENE,71,9.0,9.0,63,0.00,,OVC100,0.00,VWS V14.01,2013-03-18 12:40:00,
2013-03-18 08:46:00,28.3,17.0,30.32,ESE,106,12.0,12.0,62,0.00,,OVC100,0.00,VWS V14.01,2013-03-18 12:46:00,
2013-03-18 08:51:00,28.4,17.1,30.32,ESE,103,8.0,9.0,62,0.00,,OVC100,0.00,VWS V14.01,2013-03-18 12:51:00,
2013-03-18 08:56:00,28.6,17.6,30.32,ESE,119,4.0,9.0,63,0.00,,OVC100,0.00,VWS V14.01,2013-03-18 12:56:00,
2013-03-18 09:01:00,28.7,17.3,30.32,ESE,121,9.0,9.0,62,0.00,,OVC100,0.00,VWS V14.01,2013-03-18 13:01:00,
2013-03-18 09:06:00,28.8,17.4,30.32,NE,56,3.0,7.0,62,0.00,,OVC085,0.00,VWS V14.01,2013-03-18 13:06:00,
2013-03-18 09:11:00,28.8,17.1,30.32,ESE,115,5.0,11.0,61,0.00,,OVC085,0.00,VWS V14.01,2013-03-18 13:11:00,
2013-03-18 09:17:00,28.8,17.4,30.32,ESE,108,7.0,11.0,62,0.00,,OVC085,0.00,VWS V14.01,2013-03-18 13:17:00,
2013-03-18 09:22:00,28.9,17.5,30.31,East,99,6.0,11.0,62,0.00,,OVC085,0.00,VWS V14.01,2013-03-18 13:22:00,
2013-03-18 09:27:00,29.0,17.6,30.31,ESE,119,8.0,9.0,62,0.00,,OVC085,0.00,VWS V14.01,2013-03-18 13:27:00,
2013-03-18 09:32:00,29.0,17.2,30.31,East,79,5.0,10.0,61,0.00,,OVC085,0.00,VWS V14.01,2013-03-18 13:32:00,
2013-03-18 09:37:00,29.2,17.1,30.31,ESE,114,7.0,10.0,60,0.00,,OVC085,0.00,VWS V14.01,2013-03-18 13:37:00,
2013-03-18 09:42:00,29.2,17.4,30.31,East,101,6.0,10.0,61,0.00,,OVC085,0.00,VWS V14.01,2013-03-18 13:42:00,
2013-03-18 09:47:00,29.3,17.1,30.30,ESE,108,6.0,10.0,60,0.00,,OVC085,0.00,VWS V14.01,2013-03-18 13:47:00,
2013-03-18 09:52:00,29.6,18.2,30.30,ESE,103,9.0,9.0,62,0.00,,OVC085,0.00,VWS V14.01,2013-03-18 13:52:00,
2013-03-18 09:57:00,29.8,17.6,30.30,SE,124,7.0,11.0,60,0.00,,OVC085,0.00,VWS V14.01,2013-03-18 13:57:00,
2013-03-18 10:02:00,30.0,17.4,30.30,ESE,110,14.0,15.0,59,0.00,,OVC080,0.00,VWS V14.01,2013-03-18 14:02:00,
2013-03-18 10:07:00,30.0,17.8,30.30,SE,132,8.0,16.0,60,0.00,,OVC080,0.00,VWS V14.01,2013-03-18 14:07:00,
2013-03-18 10:12:00,30.2,17.6,30.29,East,98,4.0,13.0,59,0.00,,OVC080,0.00,VWS V14.01,2013-03-18 14:12:00,
2013-03-18 10:17:00,30.2,17.2,30.29,ESE,110,9.0,15.0,58,0.00,,OVC080,0.00,VWS V14.01,2013-03-18 14:17:00,
2013-03-18 10:23:00,30.4,17.4,30.29,ESE,115,12.0,14.0,58,0.00,,OVC080,0.00,VWS V14.01,2013-03-18 14:23:00,
2013-03-18 10:28:00,30.5,16.7,30.28,ESE,107,13.0,20.0,56,0.00,,OVC080,0.00,VWS V14.01,2013-03-18 14:28:00,
2013-03-18 10:33:00,30.4,16.6,30.28,ESE,112,11.0,19.0,56,0.00,,OVC080,0.00,VWS V14.01,2013-03-18 14:33:00,
2013-03-18 10:38:00,30.5,17.5,30.29,SE,135,10.0,17.0,58,0.00,,OVC080,0.00,VWS V14.01,2013-03-18 14:38:00,
2013-03-18 10:43:00,30.3,16.5,30.29,ESE,113,16.0,19.0,56,0.00,,OVC080,0.00,VWS V14.01,2013-03-18 14:43:00,
2013-03-18 10:48:00,30.2,16.4,30.28,ESE,118,17.0,20.0,56,0.00,,OVC080,0.00,VWS V14.01,2013-03-18 14:48:00,
2013-03-18 10:53:00,30.3,16.5,30.27,ESE,107,9.0,16.0,56,0.00,,OVC080,0.00,VWS V14.01,2013-03-18 14:53:00,
2013-03-18 10:58:00,30.5,16.7,30.28,SE,139,9.0,20.0,56,0.00,,OVC080,0.00,VWS V14.01,2013-03-18 14:58:00,
2013-03-18 11:03:00,30.6,17.6,30.28,SE,129,12.0,16.0,58,0.00,,OVC060,0.00,VWS V14.01,2013-03-18 15:03:00,
2013-03-18 11:08:00,30.7,17.3,30.28,ESE,122,10.0,16.0,57,0.00,,OVC060,0.00,VWS V14.01,2013-03-18 15:08:00,
2013-03-18 11:13:00,30.8,17.0,30.28,ESE,117,11.0,18.0,56,0.00,,OVC060,0.00,VWS V14.01,2013-03-18 15:13:00,
2013-03-18 11:18:00,30.7,16.5,30.27,SE,132,14.0,16.0,55,0.00,,OVC060,0.00,VWS V14.01,2013-03-18 15:18:00,
2013-03-18 11:23:00,30.8,17.4,30.27,SE,134,12.0,13.0,57,0.00,,OVC060,0.00,VWS V14.01,2013-03-18 15:23:00,
2013-03-18 11:28:00,31.0,17.2,30.27,ESE,104,9.0,16.0,56,0.00,,OVC060,0.00,VWS V14.01,2013-03-18 15:28:00,
2013-03-18 11:34:00,30.9,18.3,30.27,SE,134,8.0,15.0,59,0.00,,OVC060,0.00,VWS V14.01,2013-03-18 15:34:00,
2013-03-18 11:39:00,30.9,17.1,30.27,SE,134,14.0,14.0,56,0.00,,OVC060,0.00,VWS V14.01,2013-03-18 15:39:00,
2013-03-18 11:44:00,30.9,17.5,30.27,ESE,108,9.0,18.0,57,0.00,,OVC060,0.00,VWS V14.01,2013-03-18 15:44:00,
2013-03-18 11:49:00,30.9,17.9,30.26,ESE,108,10.0,16.0,58,0.00,,OVC060,0.00,VWS V14.01,2013-03-18 15:49:00,
2013-03-18 11:54:00,31.1,18.1,30.25,ESE,105,6.0,14.0,58,0.00,,OVC060,0.00,VWS V14.01,2013-03-18 15:54:00,
2013-03-18 11:59:00,31.3,17.4,30.25,ENE,68,10.0,12.0,56,0.00,,OVC060,0.00,VWS V14.01,2013-03-18 15:59:00,
2013-03-18 12:04:00,31.3,17.9,30.25,ESE,119,14.0,19.0,57,0.00,,OVC070,0.00,VWS V14.01,2013-03-18 16:04:00,
2013-03-18 12:09:00,31.3,17.9,30.24,ESE,108,16.0,18.0,57,0.00,,OVC070,0.00,VWS V14.01,2013-03-18 16:09:00,
2013-03-18 12:14:00,31.4,17.9,30.24,ESE,105,9.0,16.0,57,0.00,,OVC070,0.00,VWS V14.01,2013-03-18 16:14:00,
2013-03-18 12:19:00,31.6,18.9,30.24,ENE,72,7.0,15.0,59,0.00,,OVC070,0.00,VWS V14.01,2013-03-18 16:19:00,
2013-03-18 12:24:00,31.7,18.6,30.24,ESE,112,12.0,15.0,58,0.00,,OVC070,0.00,VWS V14.01,2013-03-18 16:24:00,
2013-03-18 12:29:00,31.8,18.7,30.23,SE,129,12.0,14.0,58,0.00,,OVC070,0.00,VWS V14.01,2013-03-18 16:29:00,
2013-03-18 12:34:00,32.1,19.4,30.23,ESE,105,9.0,16.0,59,0.00,,OVC070,0.00,VWS V14.01,2013-03-18 16:34:00,
2013-03-18 12:40:00,32.2,19.5,30.24,SE,127,12.0,15.0,59,0.00,,OVC070,0.00,VWS V14.01,2013-03-18 16:40:00,
2013-03-18 12:45:00,32.2,19.9,30.23,ESE,110,8.0,15.0,60,0.00,,OVC070,0.00,VWS V14.01,2013-03-18 16:45:00,
2013-03-18 12:50:00,32.4,20.9,30.23,ESE,108,11.0,12.0,62,0.00,,OVC070,0.00,VWS V14.01,2013-03-18 16:50:00,
2013-03-18 12:55:00,32.5,20.2,30.23,ENE,75,7.0,11.0,60,0.00,,OVC070,0.00,VWS V14.01,2013-03-18 16:55:00,
2013-03-18 13:00:00,32.6,21.0,30.22,ESE,105,12.0,13.0,62,0.00,,OVC070,0.00,VWS V14.01,2013-03-18 17:00:00,
2013-03-18 13:05:00,32.4,20.5,30.22,SSE,158,4.0,14.0,61,0.00,,OVC060,0.00,VWS V14.01,2013-03-18 17:05:00,
2013-03-18 13:10:00,32.5,20.9,30.22,East,101,10.0,11.0,62,0.00,,OVC060,0.00,VWS V14.01,2013-03-18 17:10:00,
2013-03-18 13:15:00,32.5,20.9,30.22,ESE,111,7.0,11.0,62,0.00,,OVC060,0.00,VWS V14.01,2013-03-18 17:15:00,
2013-03-18 13:20:00,32.6,21.8,30.22,NE,51,7.0,7.0,64,0.00,,OVC060,0.00,VWS V14.01,2013-03-18 17:20:00,
2013-03-18 13:25:00,32.6,21.0,30.22,ESE,115,5.0,7.0,62,0.00,,OVC060,0.00,VWS V14.01,2013-03-18 17:25:00,
2013-03-18 13:30:00,32.6,21.4,30.22,East,87,5.0,5.0,63,0.00,,OVC060,0.00,VWS V14.01,2013-03-18 17:30:00,
2013-03-18 13:35:00,32.8,21.6,30.22,ESE,110,4.0,4.0,63,0.00,,OVC060,0.00,VWS V14.01,2013-03-18 17:35:00,
2013-03-18 13:40:00,32.9,22.1,30.21,NNE,14,1.0,6.0,64,0.00,,OVC060,0.00,VWS V14.01,2013-03-18 17:40:00,
2013-03-18 13:45:00,32.8,22.0,30.22,ESE,108,2.0,5.0,64,0.00,,OVC060,0.00,VWS V14.01,2013-03-18 17:45:00,
2013-03-18 13:50:00,32.8,22.0,30.22,East,91,2.0,4.0,64,0.00,,OVC060,0.00,VWS V14.01,2013-03-18 17:50:00,
2013-03-18 13:55:00,32.9,22.1,30.22,ENE,60,4.0,6.0,64,0.00,,OVC060,0.00,VWS V14.01,2013-03-18 17:55:00,
2013-03-18 14:00:00,32.9,22.1,30.21,ESE,122,5.0,6.0,64,0.00,,OVC060,0.00,VWS V14.01,2013-03-18 18:00:00,
2013-03-18 14:05:00,32.9,22.4,30.21,NNE,25,1.0,4.0,65,0.00,,OVC034,0.00,VWS V14.01,2013-03-18 18:05:00,
2013-03-18 14:10:00,32.9,22.4,30.21,East,101,3.0,6.0,65,0.00,,OVC034,0.00,VWS V14.01,2013-03-18 18:10:00,
2013-03-18 14:16:00,33.0,22.9,30.20,ESE,108,8.0,9.0,66,0.00,,OVC034,0.00,VWS V14.01,2013-03-18 18:16:00,
2013-03-18 14:21:00,33.0,24.0,30.19,ESE,117,10.0,11.0,69,0.00,,OVC034,0.00,VWS V14.01,2013-03-18 18:21:00,
2013-03-18 14:26:00,32.9,23.9,30.18,ESE,108,2.0,7.0,69,0.00,,OVC034,0.00,VWS V14.01,2013-03-18 18:26:00,
2013-03-18 14:31:00,32.8,24.5,30.18,ESE,110,6.0,8.0,71,0.00,,OVC034,0.00,VWS V14.01,2013-03-18 18:31:00,
2013-03-18 14:36:00,32.7,25.3,30.17,ESE,115,8.0,14.0,74,0.00,,OVC034,0.00,VWS V14.01,2013-03-18 18:36:00,
2013-03-18 14:41:00,32.7,25.7,30.17,SE,136,12.0,14.0,75,0.00,,OVC034,0.00,VWS V14.01,2013-03-18 18:41:00,
2013-03-18 14:47:00,32.7,26.0,30.17,SE,127,8.0,10.0,76,0.00,,OVC034,0.00,VWS V14.01,2013-03-18 18:47:00,
2013-03-18 14:52:00,32.7,26.3,30.16,SE,131,12.0,14.0,77,0.00,,OVC034,0.00,VWS V14.01,2013-03-18 18:52:00,
2013-03-18 14:57:00,32.8,26.1,30.15,ESE,105,13.0,13.0,76,0.00,,OVC034,0.00,VWS V14.01,2013-03-18 18:57:00,
2013-03-18 15:02:00,32.8,26.1,30.14,ESE,113,5.0,11.0,76,0.00,,OVC030,0.00,VWS V14.01,2013-03-18 19:02:00,
2013-03-18 15:07:00,32.8,26.1,30.13,East,80,7.0,13.0,76,0.00,,OVC030,0.00,VWS V14.01,2013-03-18 19:07:00,
2013-03-18 15:12:00,32.8,26.4,30.13,ESE,110,10.0,19.0,77,0.00,,OVC030,0.00,VWS V14.01,2013-03-18 19:12:00,
2013-03-18 15:17:00,32.7,26.6,30.13,East,101,7.0,11.0,78,0.00,,OVC030,0.00,VWS V14.01,2013-03-18 19:17:00,
2013-03-18 15:22:00,32.6,26.5,30.13,ENE,65,5.0,14.0,78,0.00,,OVC030,0.00,VWS V14.01,2013-03-18 19:22:00,
2013-03-18 15:27:00,32.6,26.8,30.12,ESE,122,6.0,11.0,79,0.00,,OVC030,0.00,VWS V14.01,2013-03-18 19:27:00,
2013-03-18 15:32:00,32.6,27.1,30.12,SE,124,8.0,14.0,80,0.00,,OVC030,0.00,VWS V14.01,2013-03-18 19:32:00,
2013-03-18 15:37:00,32.5,27.3,30.12,East,98,8.0,12.0,81,0.00,,OVC030,0.00,VWS V14.01,2013-03-18 19:37:00,
2013-03-18 15:42:00,32.4,27.5,30.12,ESE,108,5.0,11.0,82,0.00,,OVC030,0.00,VWS V14.01,2013-03-18 19:42:00,
2013-03-18 15:47:00,32.4,27.8,30.12,East,100,8.0,9.0,83,0.00,,OVC030,0.00,VWS V14.01,2013-03-18 19:47:00,
2013-03-18 15:52:00,32.3,27.7,30.10,East,100,7.0,11.0,83,0.00,,OVC030,0.00,VWS V14.01,2013-03-18 19:52:00,
2013-03-18 15:57:00,32.2,27.6,30.10,ESE,120,5.0,17.0,83,0.00,,OVC030,0.00,VWS V14.01,2013-03-18 19:57:00,
2013-03-18 16:02:00,32.1,27.8,30.09,East,99,8.0,13.0,84,0.00,,OVC021,0.00,VWS V14.01,2013-03-18 20:02:00,
2013-03-18 16:08:00,32.0,28.0,30.09,North,10,7.0,11.0,85,0.00,,OVC021,0.00,VWS V14.01,2013-03-18 20:08:00,
2013-03-18 16:12:00,31.9,27.9,30.11,ESE,104,3.0,7.0,85,0.00,,OVC021,0.00,VWS V14.01,2013-03-18 20:12:00,
2013-03-18 16:18:00,31.9,28.2,30.12,ESE,108,0.0,2.0,86,0.00,,OVC021,0.00,VWS V14.01,2013-03-18 20:18:00,
2013-03-18 16:23:00,31.8,28.4,30.10,ESE,115,5.0,6.0,87,0.00,,OVC021,0.00,VWS V14.01,2013-03-18 20:23:00,
2013-03-18 16:28:00,31.6,28.7,30.08,ESE,123,13.0,13.0,89,0.00,,OVC021,0.00,VWS V14.01,2013-03-18 20:28:00,
2013-03-18 16:33:00,31.5,28.9,30.08,East,82,9.0,13.0,90,0.00,,OVC021,0.00,VWS V14.01,2013-03-18 20:33:00,
2013-03-18 16:38:00,31.4,29.1,30.07,ESE,108,8.0,12.0,91,0.00,,OVC021,0.00,VWS V14.01,2013-03-18 20:38:00,
2013-03-18 16:43:00,31.4,29.4,30.07,ESE,110,9.0,15.0,92,0.00,,OVC021,0.00,VWS V14.01,2013-03-18 20:43:00,
2013-03-18 16:48:00,31.4,29.4,30.08,ESE,115,3.0,10.0,92,0.00,,OVC021,0.00,VWS V14.01,2013-03-18 20:48:00,
2013-03-18 16:53:00,31.4,29.6,30.08,ESE,119,8.0,12.0,93,0.00,,OVC021,0.00,VWS V14.01,2013-03-18 20:53:00,
2013-03-18 16:58:00,31.4,29.6,30.09,ENE,73,0.0,7.0,93,0.00,,OVC021,0.00,VWS V14.01,2013-03-18 20:58:00,
2013-03-18 17:04:00,31.3,29.8,30.09,North,5,0.0,1.0,94,0.00,,,0.00,VWS V14.01,2013-03-18 21:04:00,
2013-03-18 17:09:00,31.3,29.8,30.09,ENE,76,0.0,0.0,94,0.00,,,0.00,VWS V14.01,2013-03-18 21:09:00,
2013-03-18 17:14:00,31.4,30.1,30.09,North,349,0.0,0.0,95,0.00,,,0.00,VWS V14.01,2013-03-18 21:14:00,
2013-03-18 17:19:00,31.5,30.2,30.09,NNE,18,0.0,1.0,95,0.00,,,0.00,VWS V14.01,2013-03-18 21:19:00,
2013-03-18 17:24:00,31.5,30.2,30.08,NNW,347,0.0,1.0,95,0.00,,,0.00,VWS V14.01,2013-03-18 21:24:00,
2013-03-18 17:29:00,31.3,30.0,30.08,NW,304,0.0,2.0,95,0.00,,,0.00,VWS V14.01,2013-03-18 21:29:00,
2013-03-18 17:34:00,31.3,30.3,30.07,NNE,32,0.0,1.0,96,0.00,,,0.00,VWS V14.01,2013-03-18 21:34:00,
2013-03-18 17:39:00,31.3,30.3,30.07,ENE,74,0.0,1.0,96,0.00,,,0.00,VWS V14.01,2013-03-18 21:39:00,
2013-03-18 17:45:00,31.3,30.3,30.07,North,9,0.0,1.0,96,0.00,,,0.00,VWS V14.01,2013-03-18 21:45:00,
2013-03-18 17:50:00,31.2,30.2,30.07,ENE,67,0.0,1.0,96,0.00,,,0.00,VWS V14.01,2013-03-18 21:50:00,
2013-03-18 17:55:00,31.1,30.1,30.07,East,79,2.0,3.0,96,0.00,,,0.00,VWS V14.01,2013-03-18 21:55:00,
2013-03-18 18:00:00,31.1,30.1,30.06,East,86,0.0,3.0,96,0.00,,,0.00,VWS V14.01,2013-03-18 22:00:00,
2013-03-18 18:05:00,31.1,30.1,30.06,East,86,3.0,4.0,96,0.00,,,0.00,VWS V14.01,2013-03-18 22:05:00,
2013-03-18 18:10:00,31.1,30.1,30.06,East,97,1.0,1.0,96,0.00,,,0.00,VWS V14.01,2013-03-18 22:10:00,
2013-03-18 18:15:00,31.1,30.1,30.06,SE,129,1.0,1.0,96,0.00,,,0.00,VWS V14.01,2013-03-18 22:15:00,
2013-03-18 18:20:00,31.3,30.5,30.06,East,101,1.0,1.0,97,0.00,,,0.00,VWS V14.01,2013-03-18 22:20:00,
2013-03-18 18:25:00,31.4,30.6,30.06,ENE,65,3.0,3.0,97,0.00,,,0.00,VWS V14.01,2013-03-18 22:25:00,
2013-03-18 18:30:00,31.5,30.8,30.06,ESE,113,8.0,9.0,97,0.00,,,0.00,VWS V14.01,2013-03-18 22:30:00,
2013-03-18 18:35:00,31.5,30.8,30.05,East,101,6.0,8.0,97,0.00,,,0.00,VWS V14.01,2013-03-18 22:35:00,
2013-03-18 18:40:00,31.5,30.8,30.05,East,83,8.0,10.0,97,0.00,,,0.00,VWS V14.01,2013-03-18 22:40:00,
2013-03-18 18:45:00,31.4,30.6,30.05,East,101,7.0,7.0,97,0.00,,,0.00,VWS V14.01,2013-03-18 22:45:00,
2013-03-18 18:50:00,31.4,30.6,30.05,East,84,7.0,7.0,97,0.00,,,0.00,VWS V14.01,2013-03-18 22:50:00,
2013-03-18 18:55:00,31.3,30.5,30.04,ESE,112,12.0,13.0,97,0.00,,,0.00,VWS V14.01,2013-03-18 22:55:00,
2013-03-18 19:00:00,31.2,30.5,30.04,WNW,288,5.0,6.0,97,0.00,,,0.00,VWS V14.01,2013-03-18 23:00:00,
2013-03-18 19:05:00,31.1,30.4,30.04,NE,53,6.0,11.0,97,0.00,,,0.00,VWS V14.01,2013-03-18 23:05:00,
2013-03-18 19:10:00,30.9,30.1,30.03,East,101,9.0,9.0,97,0.00,,,0.00,VWS V14.01,2013-03-18 23:10:00,
2013-03-18 19:15:00,30.8,30.0,30.03,ESE,110,6.0,8.0,97,0.00,,,0.00,VWS V14.01,2013-03-18 23:15:00,
2013-03-18 19:20:00,30.7,30.0,30.02,ENE,67,7.0,9.0,97,0.00,,,0.00,VWS V14.01,2013-03-18 23:20:00,
2013-03-18 19:25:00,30.6,29.9,30.01,ENE,77,12.0,13.0,97,0.00,,,0.00,VWS V14.01,2013-03-18 23:25:00,
2013-03-18 19:30:00,30.5,29.8,30.01,ENE,77,12.0,12.0,97,0.00,,,0.00,VWS V14.01,2013-03-18 23:30:00,
2013-03-18 19:36:00,30.4,29.6,30.01,ESE,119,9.0,10.0,97,0.00,,,0.00,VWS V14.01,2013-03-18 23:36:00,
2013-03-18 19:41:00,30.4,29.6,30.01,ESE,103,6.0,7.0,97,0.00,,,0.00,VWS V14.01,2013-03-18 23:41:00,
2013-03-18 19:46:00,30.4,29.6,30.01,ESE,110,10.0,12.0,97,0.00,,,0.00,VWS V14.01,2013-03-18 23:46:00,
2013-03-18 19:51:00,30.5,29.8,30.02,East,101,6.0,9.0,97,0.00,,,0.00,VWS V14.01,2013-03-18 23:51:00,
2013-03-18 19:56:00,30.6,29.9,30.03,SE,135,0.0,2.0,97,0.00,,,0.00,VWS V14.01,2013-03-18 23:56:00,
2013-03-18 20:01:00,30.7,30.0,30.03,East,88,2.0,10.0,97,0.00,,,0.00,VWS V14.01,2013-03-19 00:01:00,
2013-03-18 20:07:00,30.8,30.0,30.02,East,101,2.0,8.0,97,0.00,,,0.00,VWS V14.01,2013-03-19 00:07:00,
2013-03-18 20:12:00,30.9,30.1,30.02,East,79,7.0,10.0,97,0.00,,,0.00,VWS V14.01,2013-03-19 00:12:00,
2013-03-18 20:17:00,31.0,30.2,30.02,ESE,119,6.0,9.0,97,0.00,,,0.00,VWS V14.01,2013-03-19 00:17:00,
2013-03-18 20:22:00,31.1,30.1,30.01,SE,127,0.0,10.0,96,0.00,,,0.00,VWS V14.01,2013-03-19 00:22:00,
2013-03-18 20:27:00,31.2,30.2,30.01,ENE,70,9.0,10.0,96,0.00,,,0.00,VWS V14.01,2013-03-19 00:27:00,
2013-03-18 20:32:00,31.3,30.3,30.01,ENE,62,5.0,10.0,96,0.00,,,0.00,VWS V14.01,2013-03-19 00:32:00,
2013-03-18 20:37:00,31.4,30.4,30.00,SSE,165,5.0,12.0,96,0.00,,,0.00,VWS V14.01,2013-03-19 00:37:00,
2013-03-18 20:42:00,31.6,30.6,30.00,ESE,105,9.0,10.0,96,0.00,,,0.00,VWS V14.01,2013-03-19 00:42:00,
2013-03-18 20:47:00,31.7,30.7,30.00,ESE,121,7.0,15.0,96,0.00,,,0.00,VWS V14.01,2013-03-19 00:47:00,
2013-03-18 20:52:00,31.7,30.7,29.99,ESE,119,11.0,14.0,96,0.00,,,0.00,VWS V14.01,2013-03-19 00:52:00,
2013-03-18 20:57:00,31.8,30.8,29.99,East,89,8.0,15.0,96,0.00,,,0.00,VWS V14.01,2013-03-19 00:57:00,
2013-03-18 21:02:00,31.8,30.8,29.99,East,86,5.0,13.0,96,0.00,,RA,0.00,VWS V14.01,2013-03-19 01:02:00,
2013-03-18 21:07:00,31.8,30.8,29.98,East,90,10.0,15.0,96,0.00,,RA,0.00,VWS V14.01,2013-03-19 01:07:00,
2013-03-18 21:12:00,31.9,30.9,29.98,East,80,6.0,18.0,96,0.00,,RA,0.00,VWS V14.01,2013-03-19 01:12:00,
2013-03-18 21:17:00,31.9,30.9,29.98,SE,143,10.0,18.0,96,0.00,,RA,0.00,VWS V14.01,2013-03-19 01:17:00,
2013-03-18 21:22:00,32.0,31.0,29.98,ESE,108,3.0,16.0,96,0.00,,RA,0.00,VWS V14.01,2013-03-19 01:22:00,
2013-03-18 21:27:00,32.1,31.1,29.98,NE,48,6.0,17.0,96,0.00,,RA,0.00,VWS V14.01,2013-03-19 01:27:00,
2013-03-18 21:32:00,32.1,31.1,29.98,ENE,69,6.0,13.0,96,0.00,,RA,0.00,VWS V14.01,2013-03-19 01:32:00,
2013-03-18 21:38:00,32.1,31.1,29.99,ESE,106,9.0,13.0,96,0.00,,RA,0.00,VWS V14.01,2013-03-19 01:38:00,
2013-03-18 21:43:00,32.1,31.1,29.99,East,101,6.0,12.0,96,0.00,,RA,0.00,VWS V14.01,2013-03-19 01:43:00,
2013-03-18 21:48:00,32.1,31.1,29.98,East,101,4.0,11.0,96,0.00,,RA,0.00,VWS V14.01,2013-03-19 01:48:00,
2013-03-18 21:53:00,32.2,31.2,29.98,East,94,7.0,15.0,96,0.00,,RA,0.00,VWS V14.01,2013-03-19 01:53:00,
2013-03-18 21:58:00,32.2,31.2,29.98,East,99,1.0,11.0,96,0.00,,RA,0.00,VWS V14.01,2013-03-19 01:58:00,
2013-03-18 22:03:00,32.2,31.2,29.97,ESE,123,5.0,17.0,96,0.00,,-RA,0.00,VWS V14.01,2013-03-19 02:03:00,
2013-03-18 22:08:00,32.3,31.3,29.97,ENE,65,4.0,12.0,96,0.00,,-RA,0.00,VWS V14.01,2013-03-19 02:08:00,
2013-03-18 22:13:00,32.3,31.3,29.96,ENE,71,10.0,13.0,96,0.00,,-RA,0.00,VWS V14.01,2013-03-19 02:13:00,
2013-03-18 22:18:00,32.4,31.4,29.96,East,100,8.0,15.0,96,0.00,,-RA,0.00,VWS V14.01,2013-03-19 02:18:00,
2013-03-18 22:23:00,32.4,31.4,29.95,SE,135,6.0,11.0,96,0.00,,-RA,0.00,VWS V14.01,2013-03-19 02:23:00,
2013-03-18 22:28:00,32.4,31.4,29.95,NE,46,6.0,15.0,96,0.00,,-RA,0.00,VWS V14.01,2013-03-19 02:28:00,
2013-03-18 22:33:00,32.5,31.5,29.95,East,100,9.0,12.0,96,0.00,,RA,0.00,VWS V14.01,2013-03-19 02:33:00,
2013-03-18 22:38:00,32.5,31.5,29.94,ESE,113,6.0,13.0,96,0.00,,RA,0.00,VWS V14.01,2013-03-19 02:38:00,
2013-03-18 22:43:00,32.5,31.5,29.93,East,88,9.0,16.0,96,0.00,,RA,0.00,VWS V14.01,2013-03-19 02:43:00,
2013-03-18 22:49:00,32.5,31.5,29.93,ESE,121,4.0,11.0,96,0.00,,RA,0.00,VWS V14.01,2013-03-19 02:49:00,
2013-03-18 22:54:00,32.5,31.5,29.92,East,97,9.0,9.0,96,0.00,,RA,0.00,VWS V14.01,2013-03-19 02:54:00,
2013-03-18 22:59:00,32.6,31.6,29.92,East,81,4.0,11.0,96,0.00,,RA,0.00,VWS V14.01,2013-03-19 02:59:00,
2013-03-18 23:04:00,32.6,31.6,29.91,ENE,62,9.0,14.0,96,0.00,,-RA,0.00,VWS V14.01,2013-03-19 03:04:00,
2013-03-18 23:09:00,32.7,31.7,29.91,ESE,106,8.0,12.0,96,0.00,,-RA,0.00,VWS V14.01,2013-03-19 03:09:00,
2013-03-18 23:14:00,32.7,31.7,29.91,ESE,113,6.0,14.0,96,0.00,,-RA,0.00,VWS V14.01,2013-03-19 03:14:00,
2013-03-18 23:19:00,32.8,31.8,29.91,ESE,108,13.0,14.0,96,0.00,,-RA,0.00,VWS V14.01,2013-03-19 03:19:00,
2013-03-18 23:24:00,32.8,31.8,29.91,East,83,5.0,13.0,96,0.00,,-RA,0.00,VWS V14.01,2013-03-19 03:24:00,
2013-03-18 23:29:00,32.7,31.7,29.90,SW,236,3.0,11.0,96,0.00,,-RA,0.00,VWS V14.01,2013-03-19 03:29:00,
2013-03-18 23:34:00,32.7,31.7,29.91,SE,131,4.0,10.0,96,0.00,,-RA,0.00,VWS V14.01,2013-03-19 03:34:00,
2013-03-18 23:39:00,32.7,31.7,29.91,West,281,0.0,6.0,96,0.00,,-RA,0.00,VWS V14.01,2013-03-19 03:39:00,
2013-03-18 23:44:00,32.8,31.8,29.90,ENE,74,6.0,10.0,96,0.00,,-RA,0.00,VWS V14.01,2013-03-19 03:44:00,
2013-03-18 23:49:00,32.9,31.9,29.90,East,91,6.0,12.0,96,0.00,,-RA,0.00,VWS V14.01,2013-03-19 03:49:00,
2013-03-18 23:55:00,33.0,32.0,29.90,ENE,72,2.0,11.0,96,0.00,,-RA,0.00,VWS V14.01,2013-03-19 03:55:00,